GEFSMW_500_meanwind_000.txt.gz
Wind_Speed
44 45 45 46 47 48 49 50 52 54 56 57 58 59 59 59 59 58 58 57 56 56 56 55 55 54 52 50 49 51 53 52 53 54 55 56 58 59 57 57 56 55 52
46 47 48 49 50 51 52 52 53 54 56 57 59 60 62 62 61 60 59 58 57 57 56 54 53 51 50 49 50 52 54 54 54 54 55 57 59 60 58 57 57 56 54
53 51 50 50 51 52 52 53 53 55 56 58 60 62 64 64 64 62 61 60 58 57 56 53 51 49 50 50 50 52 53 52 52 52 53 54 56 56 56 54 55 54 51
59 59 57 56 56 56 56 56 56 56 56 56 58 61 63 63 63 63 62 61 59 56 54 53 52 52 51 51 52 53 53 54 53 51 50 50 51 52 52 50 51 52 53
61 60 60 62 63 64 65 65 66 64 63 61 60 61 63 64 64 63 62 61 58 56 54 54 55 52 51 51 52 53 55 56 55 52 52 51 50 50 50 52 53 52 54
62 64 67 69 72 74 74 75 76 74 72 68 63 63 64 64 63 61 60 58 56 54 53 53 54 52 52 52 52 53 56 58 57 54 51 51 52 51 52 53 51 50 53
70 73 76 79 80 81 81 80 80 77 73 68 63 63 63 63 62 60 57 55 53 52 51 51 51 49 49 49 50 52 53 56 55 52 51 51 51 50 49 48 47 48 50
80 84 85 86 86 85 84 80 75 70 67 64 59 57 57 59 59 55 54 50 48 48 48 50 46 47 48 49 49 50 50 51 56 55 50 48 47 47 46 46 45 45 44
86 88 88 87 85 81 76 72 68 63 61 59 55 52 52 53 51 48 50 48 48 48 47 47 45 47 48 49 51 51 50 49 52 53 48 45 45 43 43 44 44 44 44
87 84 81 78 72 66 61 59 60 58 55 53 53 55 48 53 53 49 45 46 47 46 44 47 47 43 45 48 48 49 49 49 49 44 39 41 41 42 42 41 44 44 44
75 70 66 61 56 52 51 52 54 56 55 52 52 57 54 52 51 52 45 43 44 46 48 45 45 45 43 41 41 43 47 46 44 36 37 38 39 39 39 39 40 41 42
61 57 59 62 62 59 56 53 52 53 53 53 53 56 53 54 59 53 46 42 40 41 44 44 43 41 41 41 40 41 42 40 39 37 38 37 38 38 37 37 37 38 39
55 56 62 69 67 65 59 56 53 49 46 48 51 52 51 49 52 53 45 40 38 37 40 42 39 36 36 38 37 40 38 33 35 37 37 35 37 36 35 35 35 36 36
57 63 73 73 64 60 55 51 45 42 38 39 45 43 47 50 43 42 39 38 36 38 41 42 40 34 32 33 33 35 37 36 33 34 35 37 36 36 36 37 37 37 38
60 70 74 66 54 45 41 39 35 33 30 34 38 41 39 42 40 41 38 39 44 43 39 43 41 36 35 34 34 36 38 36 34 34 37 38 37 36 37 39 39 40 42
65 73 71 57 41 34 29 26 26 28 26 27 30 33 36 36 35 39 40 40 40 34 39 44 42 38 35 33 35 36 36 34 34 35 37 39 41 41 39 39 40 42 43
66 69 59 35 24 20 18 18 22 28 22 18 21 26 27 30 32 34 36 40 36 35 37 37 35 33 34 33 32 32 32 34 36 37 38 39 41 43 43 41 41 42 43
62 59 43 24 18 14 16 18 21 22 18 12 12 19 18 17 19 20 23 26 29 32 30 31 33 33 33 31 29 31 33 34 35 37 39 40 42 42 42 42 42 43 45
54 47 35 22 15 13 17 17 17 18 18 11 9 13 13 14 16 20 23 24 27 30 31 31 30 30 29 29 30 33 36 37 38 40 42 43 43 43 42 43 44 45 46
45 37 28 20 15 15 15 16 15 17 17 14 10 12 16 21 26 27 26 27 29 32 33 30 27 27 28 30 32 33 37 40 43 45 45 45 44 44 45 46 46 47 47
37 33 25 20 17 16 17 16 15 15 16 17 16 17 19 22 25 27 28 29 31 32 32 29 27 28 30 30 33 38 41 43 44 46 49 49 47 47 48 48 48 49 49
33 31 27 22 21 20 18 16 17 18 19 19 21 25 27 28 28 29 30 31 32 33 32 31 30 29 31 33 36 41 44 46 47 46 47 50 50 49 50 49 50 50 50
33 31 28 26 25 23 21 21 21 23 24 25 26 28 32 34 33 33 33 34 34 34 35 36 37 37 36 37 40 43 46 47 47 47 48 49 48 48 48 48 49 49 50
35 33 32 30 28 27 25 25 26 27 28 30 33 35 36 38 40 40 40 39 38 38 39 41 43 44 43 42 44 46 46 47 46 44 45 46 46 47 47 47 48 49 51
36 36 35 35 34 32 30 28 28 29 31 34 37 39 41 43 43 44 46 46 45 46 47 47 47 47 47 48 48 47 47 46 46 45 46 46 48 48 49 49 50 51 52
38 38 37 38 37 36 34 33 32 32 34 35 36 38 41 42 44 45 46 48 49 50 50 51 52 51 51 51 50 51 50 48 49 48 48 50 51 51 51 52 52 53 53

GEFSMW_500_meanwind_006.txt.gz
Wind_Speed
41 42 43 45 46 48 49 50 50 51 53 55 56 57 58 59 60 61 62 63 63 62 62 62 61 61 61 61 61 61 61 61 61 61 61 61 60 58 56 54 53 53 53
42 43 45 46 47 49 52 53 52 52 53 54 55 56 57 58 59 59 60 61 62 62 62 62 62 61 60 60 61 62 62 63 63 62 62 62 62 61 59 56 54 52 53
44 46 48 50 51 53 55 57 59 60 60 61 62 63 63 63 64 65 65 64 64 63 63 63 62 61 61 61 61 62 63 63 63 63 62 63 63 62 61 60 57 51 49
50 53 56 57 58 60 62 65 67 68 70 71 72 73 73 72 71 71 72 71 70 69 69 68 66 64 63 63 63 63 63 63 63 62 62 63 63 62 61 61 61 59 57
60 63 66 67 68 70 72 74 75 76 78 79 80 80 79 78 77 76 76 76 75 73 72 70 68 67 65 64 63 63 63 63 63 62 62 62 62 62 62 61 61 62 62
70 73 74 76 77 79 81 82 83 84 84 84 84 83 81 78 77 75 73 74 76 75 71 69 68 67 65 63 62 62 62 62 63 63 61 60 60 60 60 61 62 62 62
75 76 78 80 81 83 85 85 84 83 82 82 80 78 75 72 70 67 66 66 67 67 66 65 65 64 63 61 60 61 61 62 62 61 60 59 58 58 58 60 62 64 63
76 79 81 83 84 84 84 83 81 78 75 71 68 65 62 60 58 56 56 57 58 57 58 59 60 61 59 57 56 58 59 60 60 59 58 57 57 57 58 59 61 62 63
78 80 81 81 81 80 77 75 71 69 66 63 61 60 61 61 60 58 55 55 55 56 57 56 58 59 56 53 54 56 57 59 60 59 57 56 56 56 56 57 58 60 61
79 79 79 78 74 69 64 61 61 62 64 66 66 66 66 65 63 60 57 55 52 54 54 53 54 54 51 50 49 49 49 48 49 49 50 51 52 54 55 57 58 58 58
77 75 72 66 59 55 55 57 59 61 62 62 60 59 57 56 55 54 54 53 52 52 53 51 50 50 48 45 43 41 41 43 44 47 48 49 51 53 54 56 56 57 57
68 64 57 51 49 50 51 52 54 54 50 46 42 40 38 39 41 44 47 48 47 48 50 50 47 46 45 41 38 37 39 41 44 46 49 51 52 53 52 52 53 55 56
58 52 47 45 45 46 47 47 49 47 42 38 35 34 33 32 32 33 36 39 40 40 42 43 42 41 39 38 37 38 38 39 41 43 46 49 51 51 50 51 52 54 55
50 45 42 42 41 44 45 44 44 42 38 36 35 35 34 30 28 27 28 29 31 33 35 36 37 37 36 35 37 38 38 38 38 38 40 43 45 47 47 48 49 51 51
44 40 39 39 39 42 43 41 40 39 36 34 35 36 34 27 22 20 20 21 23 26 29 29 29 30 31 33 35 37 39 37 36 36 36 37 39 40 41 43 44 44 44
41 38 36 36 38 40 41 39 37 37 34 33 34 36 33 23 15 11 11 14 17 20 24 26 27 29 29 30 33 37 39 37 36 37 37 36 36 38 38 38 40 41 41
37 35 33 34 37 38 39 38 37 36 33 31 30 32 30 22 14 9 9 12 16 19 22 25 27 29 29 30 33 37 37 35 36 36 35 34 33 35 36 37 39 40 41
34 32 31 33 35 37 38 38 37 35 33 30 27 27 26 21 14 11 10 12 15 18 21 22 24 27 30 32 34 35 34 34 34 33 31 30 30 33 38 38 38 39 40
34 32 33 34 36 37 38 38 37 35 33 30 28 26 24 20 16 13 12 13 14 17 19 22 24 26 28 30 32 33 33 33 34 33 31 29 28 30 34 36 37 38 39
34 34 35 36 37 39 40 39 38 36 34 32 30 28 26 23 20 17 15 15 16 18 20 21 23 25 28 30 32 33 34 36 35 33 31 31 30 29 30 31 33 35 37
36 36 37 38 39 41 42 41 39 37 35 33 32 31 30 28 25 23 22 21 22 23 24 26 29 31 32 32 33 35 37 37 37 34 33 33 32 31 30 30 32 33 35
39 39 40 41 42 44 44 44 42 40 38 36 34 33 32 32 31 30 29 29 29 30 31 32 33 35 35 35 35 36 38 38 37 36 35 35 34 33 32 32 33 34 36
43 43 44 45 46 47 46 45 44 42 39 37 35 34 34 34 34 34 35 35 36 37 38 38 39 39 39 39 39 39 39 41 41 39 38 38 38 38 38 37 37 37 38
46 47 47 48 48 48 47 46 45 43 40 37 35 34 34 34 35 36 37 38 39 41 42 43 44 45 46 46 45 45 44 44 45 45 45 44 43 43 43 43 42 42 42
49 50 51 51 50 49 48 47 46 44 42 40 38 36 36 36 36 38 39 40 41 43 44 46 47 48 50 52 53 53 52 51 51 51 51 51 50 49 49 48 48 47 46
52 54 54 54 52 51 50 50 49 47 45 43 42 41 41 40 41 41 42 43 44 45 46 47 48 49 51 53 55 57 58 58 58 58 57 57 57 57 55 55 54 53 52

GEFSMW_500_meanwind_012.txt.gz
Wind_Speed
43 44 45 46 47 48 50 52 53 55 56 56 56 57 58 60 61 62 63 63 62 62 62 63 65 66 67 67 67 66 66 66 65 64 63 63 62 61 60 60 59 58 57
48 50 51 51 52 54 57 59 62 63 64 65 65 64 64 65 66 67 67 68 67 67 66 65 66 67 67 68 68 68 67 68 68 68 67 66 65 65 64 64 63 62 61
56 58 59 61 62 63 64 65 67 69 71 71 71 71 70 70 72 72 72 73 73 73 72 72 71 70 71 71 71 70 69 68 68 67 67 67 67 67 66 66 66 65 63
66 68 69 70 70 70 70 70 70 72 74 76 78 78 77 76 77 77 77 77 78 78 78 78 77 76 76 76 76 75 74 72 70 69 68 67 66 66 65 66 66 65 65
72 75 77 77 76 75 74 74 74 76 78 81 82 83 82 81 80 80 80 79 79 79 79 80 81 81 80 80 81 81 80 78 76 74 72 70 68 67 66 66 65 65 65
76 78 79 80 80 79 79 79 80 81 82 82 82 81 79 77 75 75 76 76 76 76 77 80 81 82 81 82 82 83 83 82 80 78 77 75 73 71 70 68 67 66 65
77 78 79 80 81 82 83 83 82 80 79 76 71 67 63 61 60 61 63 65 66 68 70 73 76 78 79 79 80 81 82 82 81 80 79 77 76 75 74 72 71 70 68
77 78 80 82 84 84 84 83 79 73 66 59 52 48 47 47 49 52 55 58 61 63 65 67 69 69 70 70 69 72 74 75 76 77 77 77 76 75 74 74 73 72 70
75 78 81 83 83 82 79 75 67 58 50 42 38 38 40 42 44 46 47 49 52 55 59 63 65 63 61 61 60 61 63 64 65 67 69 71 73 73 73 72 72 71 70
73 73 72 70 66 63 57 51 46 41 36 33 33 35 37 39 39 39 41 43 44 44 45 51 58 59 57 55 54 53 54 54 54 55 57 60 63 66 66 67 67 67 67
61 57 53 53 52 47 41 36 32 30 29 30 31 33 35 36 37 39 41 42 41 39 37 38 44 52 54 53 52 50 49 49 48 48 49 52 55 57 59 61 62 64 64
52 51 50 48 44 39 33 28 26 26 26 28 29 32 34 35 36 37 38 38 35 32 30 29 32 40 48 51 52 50 47 46 46 46 47 51 54 55 56 58 60 61 62
47 47 46 43 38 34 30 27 25 26 27 28 30 32 34 34 34 34 34 33 30 25 23 22 24 31 39 44 48 50 50 47 45 45 46 48 53 57 57 58 58 58 59
45 44 42 40 36 33 31 29 28 29 30 31 32 33 34 34 32 31 30 28 25 21 19 19 20 25 31 38 44 47 48 47 45 43 44 44 47 51 53 54 53 53 52
44 43 42 40 38 35 33 33 32 33 33 34 35 34 34 34 32 29 27 25 23 19 17 17 20 25 28 32 37 40 42 44 43 41 40 40 41 44 47 49 49 49 50
43 43 43 42 40 38 37 36 36 37 37 38 38 37 35 34 32 30 26 23 21 18 17 16 20 24 27 29 32 35 37 39 39 39 38 37 39 42 43 45 46 47 48
43 44 45 45 44 43 42 41 40 40 40 41 41 40 38 36 33 31 27 24 21 19 18 18 19 23 27 29 30 32 33 35 36 36 36 36 38 40 42 43 45 46 46
44 46 48 48 48 48 48 47 46 45 45 44 43 42 40 38 35 33 30 26 23 21 21 20 20 23 25 27 27 28 29 31 31 32 34 35 37 39 42 43 44 45 46
47 50 51 52 53 53 52 51 51 50 48 47 45 43 41 39 36 34 32 30 27 25 24 23 23 24 26 27 28 28 30 30 31 33 35 36 37 38 40 41 42 43 45
50 53 55 56 56 56 55 54 53 52 51 49 46 44 41 39 36 34 33 32 31 29 28 27 27 27 27 29 30 31 31 32 34 35 36 37 38 38 38 39 39 40 41
53 55 58 59 59 58 58 58 57 56 54 52 49 47 44 41 38 35 33 33 32 32 32 32 32 31 31 31 32 33 34 35 36 36 37 38 39 39 39 38 37 37 38
56 58 59 60 61 62 61 60 58 56 55 53 51 49 46 44 42 39 36 35 34 34 34 35 36 37 37 36 36 36 36 37 37 38 38 38 39 39 39 38 37 37 36
58 60 61 61 61 60 57 55 53 51 49 47 46 46 45 44 44 43 41 39 38 37 36 37 38 40 41 42 42 42 41 41 41 40 40 40 40 41 40 40 39 39 39
60 61 59 55 52 51 50 49 49 48 47 45 43 41 39 39 39 41 43 43 43 42 41 41 41 42 44 46 47 47 47 47 47 46 45 44 43 43 43 43 42 41 41
59 55 50 47 47 48 49 49 50 50 49 47 45 42 39 36 34 34 35 39 43 46 47 46 46 46 47 49 50 51 51 52 52 52 51 50 49 48 46 45 45 44 43
50 45 44 45 46 48 49 50 51 51 50 48 46 43 40 37 34 32 31 31 33 37 42 47 50 51 51 52 53 54 55 55 56 56 56 55 54 54 52 50 49 48 47

GEFSMW_500_meanwind_018.txt.gz
Wind_Speed
63 66 69 71 73 75 76 76 75 75 74 74 74 74 74 74 73 73 72 72 71 70 70 70 69 69 69 68 68 68 67 66 65 65 64 64 63 62 61 60 58 57 55
69 73 76 79 81 83 83 82 82 81 80 80 79 79 80 80 80 79 78 77 76 76 76 76 75 75 74 73 72 72 71 70 68 68 68 67 67 65 65 64 63 62 60
76 80 83 85 86 87 87 88 87 87 86 85 85 84 83 84 85 85 84 83 83 82 82 82 82 82 81 79 78 77 77 75 73 72 71 70 69 68 68 67 66 66 65
82 84 85 85 86 86 86 84 82 81 80 79 80 81 82 83 85 86 87 87 87 87 87 87 87 88 87 87 85 83 82 81 79 77 75 73 71 70 69 69 69 69 69
83 82 82 82 81 77 73 68 65 63 62 61 61 62 63 65 68 74 79 82 84 86 87 88 89 90 91 91 90 89 87 86 84 82 80 78 76 74 71 69 68 69 69
79 78 76 73 67 60 56 54 52 51 51 51 50 49 46 43 43 46 52 59 66 70 74 78 81 84 86 89 90 90 90 89 88 87 85 83 81 79 76 73 71 70 70
74 70 66 58 51 50 49 48 49 48 47 46 45 43 40 35 31 28 29 34 40 46 52 56 60 65 69 74 78 82 86 88 89 89 88 87 85 84 83 80 77 74 72
65 61 55 49 47 46 46 47 47 47 46 45 43 41 39 34 29 25 23 24 26 30 35 39 42 46 50 54 60 66 72 78 82 85 87 87 87 86 86 85 83 80 78
58 54 50 47 44 44 46 47 47 47 46 45 43 41 38 34 31 28 25 25 25 26 29 31 34 37 40 44 48 53 58 65 71 76 78 81 83 85 85 86 87 86 83
53 50 47 44 43 44 46 48 49 48 48 46 44 42 39 35 32 30 28 28 28 28 29 31 33 35 38 40 43 46 51 56 61 64 66 69 70 72 75 78 82 84 85
49 48 46 45 45 46 49 50 50 50 49 48 46 44 42 39 37 34 32 32 31 31 32 33 34 36 37 38 38 40 43 47 50 53 57 57 57 57 60 64 68 73 78
49 49 48 48 48 50 52 53 54 54 53 52 50 48 46 44 42 40 38 37 36 36 35 35 36 36 36 35 35 35 37 39 40 43 47 50 52 54 56 58 60 63 66
49 50 50 51 52 53 55 57 58 58 58 57 55 53 51 48 46 44 43 41 40 39 38 37 36 35 34 32 31 30 28 30 33 38 42 47 50 53 54 53 54 55 57
50 51 52 54 55 57 59 60 61 62 61 60 58 57 55 52 50 48 46 44 43 41 39 37 36 35 32 29 27 24 22 26 31 35 39 44 48 50 51 51 50 51 52
53 54 56 58 59 61 62 62 62 62 60 59 57 56 54 53 51 49 47 46 44 42 40 38 36 34 31 28 25 23 24 26 31 35 39 42 45 46 47 49 49 49 50
56 58 60 62 64 64 62 60 58 57 55 54 53 52 51 49 47 46 46 45 44 42 40 39 36 34 31 29 27 26 27 30 31 34 37 39 42 42 43 45 46 47 48
59 62 64 65 64 61 58 55 53 52 52 52 51 51 49 47 45 43 42 42 42 41 40 38 36 34 33 32 30 31 32 33 33 34 35 36 39 40 41 41 42 44 46
62 64 64 61 57 53 52 52 52 53 54 55 54 53 51 48 45 42 39 38 38 39 38 37 37 35 35 34 33 33 36 37 37 37 36 36 38 40 41 41 41 42 44
63 63 59 54 51 51 51 52 53 55 56 57 57 55 53 49 45 41 37 35 34 35 37 37 37 37 37 37 37 36 37 39 39 39 39 38 39 40 41 42 43 43 44
61 57 52 49 49 50 51 53 55 57 58 58 58 56 53 50 45 41 36 33 31 30 33 36 38 38 38 39 39 39 38 39 40 40 40 40 41 42 43 44 45 46 46
56 51 48 47 48 50 53 55 57 59 60 60 59 57 54 50 46 42 38 33 29 27 28 32 36 39 40 41 41 42 40 39 40 41 42 42 43 44 45 45 47 48 48
51 47 46 47 49 52 55 57 59 60 62 62 60 57 54 50 46 42 39 35 31 27 25 26 31 37 40 42 43 43 43 42 40 40 41 43 43 44 45 47 48 49 49
47 45 46 48 51 54 57 59 61 62 63 62 60 57 53 50 47 43 40 37 33 28 25 23 25 31 37 41 43 44 45 44 43 42 41 42 43 44 45 46 48 49 49
45 45 47 49 53 55 58 60 62 63 63 62 60 58 54 51 48 46 42 38 34 30 26 23 22 24 30 37 42 44 45 46 45 45 44 43 42 43 44 46 47 48 48
44 45 48 51 54 56 59 61 63 64 62 61 61 60 58 54 50 46 44 40 35 31 27 23 21 20 23 28 36 42 45 47 47 47 47 46 45 44 45 46 47 48 48
44 46 49 52 54 56 59 62 64 63 60 60 61 62 61 59 55 49 44 40 37 32 28 25 22 20 19 21 26 33 41 46 49 49 49 49 49 48 47 47 48 48 49

GEFSMW_500_meanwind_024.txt.gz
Wind_Speed
70 73 74 76 78 79 80 80 80 77 73 68 63 59 55 51 49 49 50 53 57 64 75 84 86 85 83 81 79 78 77 75 74 73 72 71 70 68 66 64 64 63 62
73 74 76 78 79 80 79 77 73 67 62 58 54 50 45 43 43 44 45 45 47 50 57 69 82 89 88 86 84 82 80 78 77 76 75 74 73 71 70 68 66 65 65
76 77 78 79 79 78 74 69 63 58 55 52 49 46 45 45 45 44 44 45 45 45 46 53 64 80 90 91 89 87 85 83 80 79 78 76 75 75 73 71 70 68 67
77 78 79 79 77 74 67 61 56 54 52 51 49 47 46 45 45 44 44 44 44 44 44 44 49 60 77 90 93 92 90 87 84 82 81 79 78 77 76 75 73 72 71
77 78 78 76 74 68 61 56 54 53 52 52 51 50 50 49 48 47 46 44 43 43 42 41 41 45 56 72 87 93 93 92 89 86 84 83 82 80 79 78 76 75 73
78 78 76 73 68 62 57 54 54 54 55 54 54 54 54 54 52 51 49 46 44 42 41 39 38 37 41 51 65 80 89 93 92 90 88 86 85 83 82 81 79 78 76
78 75 72 68 63 59 56 55 56 58 58 58 58 58 57 57 56 55 53 50 46 43 40 38 36 35 34 38 46 58 71 82 89 91 90 89 88 87 85 84 82 81 80
75 72 68 64 60 58 58 59 60 61 61 60 59 58 58 57 56 56 54 52 49 45 41 37 35 34 33 33 36 43 52 63 74 83 87 88 89 89 88 87 86 84 83
72 68 65 62 60 60 61 62 62 61 59 57 55 54 53 53 52 52 52 51 50 47 44 39 36 34 33 33 33 36 41 48 56 66 74 80 84 87 89 89 89 88 87
69 65 63 62 63 64 64 62 59 56 53 51 51 50 50 49 49 48 48 47 46 46 45 42 39 36 34 33 33 33 36 40 44 51 58 65 71 77 83 86 88 88 88
66 64 64 65 65 64 61 57 54 52 51 50 50 50 49 49 49 49 47 46 44 43 43 42 41 39 37 36 34 34 35 37 39 42 47 53 59 65 71 77 83 86 88
65 65 65 66 64 60 56 53 51 51 51 51 51 51 51 50 50 49 47 46 44 42 40 40 41 41 40 38 37 36 36 37 38 39 41 44 49 54 60 66 72 78 82
65 65 65 64 60 56 53 52 51 51 52 53 53 53 53 52 50 49 46 44 41 40 39 38 39 41 42 41 40 39 38 38 37 38 38 40 43 47 51 55 61 67 72
65 65 64 60 55 53 52 51 52 53 54 55 54 54 52 51 50 47 45 42 39 36 35 35 36 38 42 43 42 41 40 39 39 38 38 38 40 42 45 48 52 57 61
64 63 60 56 53 52 51 52 54 55 56 55 53 52 52 51 50 47 44 40 37 34 31 31 32 35 39 42 43 42 41 40 39 38 37 37 37 38 39 42 45 48 51
63 60 56 53 52 52 52 54 55 56 56 54 52 52 52 52 51 48 44 41 37 33 30 28 28 31 35 39 42 42 41 40 39 38 37 36 35 35 35 37 40 44 47
61 57 53 52 52 52 54 55 56 57 56 53 52 52 53 53 53 51 47 43 38 33 30 27 26 28 31 36 40 41 41 41 40 39 38 37 35 34 36 38 40 42 44
58 54 51 51 52 53 55 56 58 58 56 53 52 53 53 53 54 54 52 48 41 35 30 26 25 25 28 32 37 39 40 41 41 40 39 39 38 36 37 39 41 43 44
55 52 51 51 51 53 55 57 59 58 55 53 53 54 54 55 55 56 56 53 44 36 30 26 24 24 26 30 34 38 39 41 42 42 42 42 41 40 40 41 43 45 45
52 51 51 51 51 53 56 58 59 58 55 54 54 55 56 57 57 59 59 55 47 37 30 25 23 22 24 27 32 36 38 41 43 44 45 45 44 43 43 42 42 43 44
51 50 51 51 51 53 56 59 59 58 56 54 55 56 57 58 60 62 61 56 47 36 28 24 21 20 22 25 29 33 37 40 43 45 46 47 47 46 45 44 42 42 42
50 50 50 51 52 54 57 58 59 58 57 55 55 57 59 60 63 64 63 58 46 32 24 21 18 18 19 22 26 30 34 39 42 45 47 48 48 48 47 46 44 43 43
48 49 49 50 52 54 57 58 58 58 57 56 56 57 59 62 65 67 65 58 44 29 20 16 15 16 17 19 22 27 32 36 40 44 46 47 48 48 49 49 47 46 45
47 48 48 49 51 54 56 57 58 59 58 56 56 57 59 62 65 69 68 61 45 29 18 12 12 13 14 16 18 22 28 33 38 42 44 45 47 48 49 49 49 49 48
46 47 47 48 50 53 55 57 58 59 58 56 56 58 60 61 65 69 71 64 50 34 21 12 8 9 11 12 14 17 21 28 34 39 42 44 45 47 48 49 49 50 50
45 46 46 47 49 52 54 56 58 59 58 56 57 58 60 61 63 67 70 68 58 42 28 17 10 7 8 10 11 13 15 20 27 34 39 42 44 46 47 48 49 49 50